This demonstration page uses our WeatherBlox Daily Observations layout. Learn more.

Left ArrowRight Arrow

36.19886, -115.1175

Hourly Observations for January 2, 2022

Temp ( °F °C ) Dew Point ( °F °C ) Humidity (%) Winds ( mph kmh ) Pressure ( in mb ) Visibility ( mi km ) Precip ( " mm )
12:53 am 00:53 Clear 32 0 11 -11.7 41 41 Calm 30.51 1033 10 16 0.00 0.00
1:53 am 01:53 Clear 33 0.6 12 -11.1 42 42 WSW 3 6 30.52 1033 10 16 0.00 0.00
2:53 am 02:53 Clear 30 -1.1 12 -11.1 47 47 NW 5 7 30.51 1033 10 16 0.00 0.00
3:53 am 03:53 Clear 29 -1.7 13 -10.6 51 51 WNW 6 9 30.50 1033 10 16 0.00 0.00
4:53 am 04:53 Clear 28 -2.2 13 -10.6 53 53 W 5 7 30.51 1033 10 16 0.00 0.00
5:53 am 05:53 Clear 28 -2.2 14 -10 56 56 Calm 30.52 1034 10 16 0.00 0.00
6:53 am 06:53 Sunny 27 -2.8 14 -10 58 58 WNW 3 6 30.54 1034 10 16 0.00 0.00
7:53 am 07:53 Sunny 30 -1.1 15 -9.4 54 54 NW 3 6 30.55 1035 10 16 0.00 0.00
8:53 am 08:53 Sunny 36 2.2 14 -10 40 40 S 5 7 30.56 1035 10 16 0.00 0.00
9:53 am 09:53 Sunny 38 3.3 10 -12.2 31 31 ESE 3 6 30.55 1035 10 16 0.00 0.00
10:53 am 10:53 Sunny 40 4.4 10 -12.2 29 29 E 5 7 30.52 1034 10 16 0.00 0.00
11:53 am 11:53 Sunny 43 6.1 9 -12.8 25 25 VRB 3 6 30.48 1032 10 16 0.00 0.00
12:53 pm 12:53 Sunny 44 6.7 8 -13.3 23 23 SE 6 9 30.45 1031 10 16 0.00 0.00
1:53 pm 13:53 Sunny 45 7.2 7 -13.9 21 21 Calm 30.42 1030 10 16 0.00 0.00
2:53 pm 14:53 Sunny 46 7.8 7 -13.9 20 20 E 3 6 30.42 1030 10 16 0.00 0.00
3:53 pm 15:53 Sunny 46 7.8 6 -14.4 19 19 SE 3 6 30.40 1030 10 16 0.00 0.00
4:53 pm 16:53 Clear 45 7.2 5 -15 19 19 SSW 3 6 30.40 1029 10 16 0.00 0.00
5:53 pm 17:53 Clear 44 6.7 4 -15.6 19 19 SSW 3 6 30.40 1029 10 16 0.00 0.00
6:53 pm 18:53 Clear 42 5.6 6 -14.4 22 22 SSW 5 7 30.39 1029 10 16 0.00 0.00
7:53 pm 19:53 Clear 39 3.9 7 -13.9 26 26 SW 3 6 30.39 1029 10 16 0.00 0.00
8:53 pm 20:53 Clear 38 3.3 10 -12.2 31 31 Calm 30.38 1029 10 16 0.00 0.00
9:53 pm 21:53 Clear 34 1.1 11 -11.7 38 38 Calm 30.40 1029 10 16 0.00 0.00
10:53 pm 22:53 Clear 33 0.6 11 -11.7 40 40 NW 7 11 30.39 1029 10 16 0.00 0.00
11:53 pm 23:53 Clear 33 0.6 10 -12.2 38 38 WNW 6 9 30.38 1029 10 16 0.00 0.00

Powered by AerisWeather